SCP
0 0 0 0 0 0 0 0 0 0 0 0 0 0 0 0 0 0 0 0 0 0 0 0 0 0 0 0 0 0 0 0 0 0 0 0 0 0 0 0 0 0 0 0 0 0 0 0 0
0 0 0 0 0 0 0 0 0 0 0 0 0 0 0 0 0 0 0 0 0 0 0 0 0 0 0 0 0 0 0 0 0 0 0 0 0 0 0 0 0 0 0 0 0 0 0 0 0
0 0 0 0 0 0 0 0 0 0 0 0 0 0 0 0 0 0 0 0 0 0 0 0 0 0 0 0 0 0 0 0 0 0 0 0 0 0 0 0 0 0 0 0 0 0 0 0 0
0 0 0 0 0 0 0 0 0 0 0 0 0 0 0 0 0 0 0 0 0 0 0 0 0 0 0 0 0 0 0 0 0 0 0 0 0 0 0 0 0 0 0 0 0 0 0 0 0
0 0 0 0 0 0 0 0 0 0 0 0 0 0 0 0 0 0 0 0 0 0 0 0 0 0 0 0 0 0 0 0 0 0 0 0 0 0 0 0 0 0 0 0 0 0 0 0 0
0 0 0 0 0 0 0 0 0 0 0 0 0 0 0 0 0 0 0 0 0 0 0 0 0 0 0 0 0 0 0 0 0 0 0 0 0 0 0 0 0 0 0 0 0 0 0 0 0
0 0 0 0 0 0 0 0 0 0 0 0 0 0 0 0 0 0 0 0 0 0 0 0 0 0 0 0 0 0 0 0 0 0 0 0 0 0 0 0 0 0 0 0 0 0 0 0 0
0 0 0 0 0 0 0 0 0 0 0 0 0 0 0 0 0 0 0 0 0 0 0 0 0 0 0 0 0 0 0 0 0 0 0 0 0 0 0 0 0 0 0 0 0 0 0 0 0
0 0 0 0 0 0 0 0 0 0 0 0 0 0 0 0 0 0 0 0 0 0 0 0 0 0 0 0 0 0 0 0 0 0 0 0 0 0 0 0 0 0 0 0 0 0 0 0 0
0 0 0 0 0 0 0 0 0 0 0 0 0 0 0 0 0 0 0 0 0 0 0 0 0 0 0 0 0 0 0 0 0 0 0 0 -0 0 0 0 0 0 0 0 0 0 0 0 0
0 0 0 0 0 0 0 0 0 0 0 0 0 0 0 0 0 0 0 0 0 0 0 0 0 0 0 0 0 -0 -0 -0 -0 -0 -0 0 0 0 0 0 0 0 0 0 0 0 0 0 0
0 0 0 0 0 0 0 0 0 0 0 0 0 0 0 0 0 0 0 0 0 0 0 0 0 0 0 0 0 -0 -0 -0 -0 -0 -0 -0 0 0 0 0 -0 -0 -0 -0 -0 -0 0 0 0
0 0 0 0 0 0 0 0 0 0 0 0 0 0 0 0 0 0 0 0 0 0 0 0 0 0 0 0 -0 -0 -0 -0 -0 -0 -0 -0 -0 0 0 0 0 -0 -0 -0 -0 0 0 0 0
0 0 0 0 0 0 0 0 0 0 0 0 0 0 0 0 0 0 0 0 0 0 0 0 0 0 0 -0 -0 -0 -0 -0 -0 -0 -0 -0 -0 0 0 0 0 -0 -0 -0 -0 0 0 0 0
0 0 0 0 0 0 0 0 0 0 0 0 0 0 0 0 0 0 0 0 0 0 0 0 0 0 -0 -0 -0 -0 -0 -0 -0 -0 -0 -0 0 0 0 0 0 0 -0 -0 -0 0 0 0 0
0 0 0 0 0 0 0 0 0 0 0 0 0 0 0 0 0 0 0 0 0 0 0 -0 -0 -0 -0 -0 -0 -0 -0 -0 -0 -0 0 0 0 0 0 0 0 0 0 -0 0 0 0 0 0
0 0 0 0 0 0 0 0 0 0 0 0 0 0 0 0 0 0 0 0 0 0 0 0 -0 -0 -0 -0 0 0 0 -0 -0 -0 0 0 0 0 0 0 0 0 0 0 0 0 0 0 0
0 0 0 0 0 0 0 0 0 0 0 0 0 0 0 0 0 0 0 0 0 0 0 0 0 0 0 0 0 0 0 0 0 0 0 0 0 0 0 0 0 0 0 0 0 0 0 0 0
0 0 0 0 0 0 0 0 0 0 0 0 0 0 0 0 0 0 0 0 0 0 0 0 0 0 0 0 0 0 0 0 0 0 0 0 0 -0 -0 -0 -0 -0 0 0 0 0 0 0 0
0 0 0 0 0 0 0 0 0 0 0 0 0 0 0 0 0 0 0 0 0 0 0 0 0 0 0 0 0 0 0 0 0 0 0 0 0 -0 -0 -0 0 0 0 0 0 0 0 0 0
0 0 0 0 0 0 0 0 0 0 0 0 0 0 0 0 0 0 0 0 0 0 0 0 0 0 0 0 0 0 0 0 0 0 0 0 0 -0 -0 0 0 0 0 0 0 0 0 0 0
0 0 0 0 0 0 0 0 0 0 0 0 0 0 0 0 0 0 0 0 0 0 0 0 0 0 0 0 0 0 0 0 0 0 0 0 0 0 0 0 0 0 0 0 0 0 0 0 0
0 0 0 0 0 0 0 0 0 0 0 0 0 0 0 0 0 0 0 0 0 0 0 0 0 0 0 0 0 0 0 0 0 0 0 0 0 0 0 0 0 0 0 0 0 0 0 0 0
0 0 0 0 0 0 0 0 0 0 0 0 0 0 0 0 0 0 0 0 0 0 0 0 0 0 0 0 0 0 0 0 0 0 0 0 0 0 0 0 0 0 0 0 0 0 0 0 0
0 0 0 0 0 0 0 0 0 0 0 0 0 0 0 0 0 0 0 0 0 0 0 0 0 0 0 0 0 0 0 0 0 0 0 0 0 0 0 0 0 0 0 0 0 0 0 0 0
0 0 0 0 0 0 0 0 0 0 0 0 0 0 0 0 0 0 0 0 0 0 0 0 0 0 0 0 0 0 0 0 0 0 0 0 0 0 0 0 0 0 0 0 0 0 0 0 0
0 0 0 0 0 0 0 0 0 0 0 0 0 0 0 0 0 0 0 0 0 0 0 0 0 0 0 0 0 0 0 0 0 0 0 0 0 0 0 0 0 0 0 0 0 0 0 0 0
0 0 0 0 0 0 0 0 0 0 0 0 0 0 0 0 0 0 0 0 0 0 0 0 0 0 0 0 0 0 0 -0 -0 -0 0 0 0 0 0 0 0 0 0 0 0 0 0 0 0
0 0 0 0 0 0 0 0 0 0 0 0 0 0 0 0 0 0 0 0 0 0 0 0 0 0 0 0 0 0 0 0 0 0 0 0 0 0 0 0 0 0 0 0 0 0 0 0 0
0 0 0 0 0 0 0 0 0 0 0 0 0 0 0 0 0 0 0 0 0 0 0 0 0 0 0 0 0 0 0 0 0 0 0 0 0 0 0 0 0 0 0 0 0 0 0 0 0
Wind_Speed
3 3 3 4 6 6 3 2 0 1 3 2 4 6 6 4 3 4 0 3 5 3 3 7 10 11 12 12 12 12 13 13 12 12 12 11 11 11 10 10 10 10 10 10 10 10 10 10 10
1 2 4 5 6 4 2 2 2 2 4 3 4 5 6 5 4 4 2 3 5 4 3 6 10 11 11 12 12 12 12 12 12 11 11 11 11 11 10 10 10 10 10 9 9 9 10 10 10
2 3 4 5 4 3 2 1 3 5 4 3 4 4 4 3 3 2 3 6 5 4 4 5 10 10 11 11 12 12 11 11 10 10 10 10 10 10 10 10 10 9 9 9 9 9 9 9 9
3 5 5 6 5 1 2 2 3 4 4 5 3 5 4 3 1 3 6 7 6 4 4 5 9 10 10 10 11 11 10 10 9 9 9 9 9 9 9 9 9 9 9 9 8 8 8 9 9
4 5 6 4 3 2 2 1 1 4 3 4 4 5 4 4 5 6 6 6 6 4 3 4 9 9 9 10 10 9 9 9 9 8 8 8 8 9 9 9 9 9 9 9 8 8 8 8 8
5 5 5 3 2 2 3 2 3 6 5 4 5 4 3 2 4 4 5 5 4 4 4 4 7 9 9 9 8 8 8 8 7 7 7 7 7 8 8 8 8 9 9 8 8 8 8 8 8
5 5 4 3 2 2 2 2 3 5 5 3 3 5 2 2 2 4 5 5 4 4 4 4 3 5 7 7 7 7 7 7 7 7 7 7 8 8 8 8 9 9 8 8 8 8 7 7 8
4 5 4 2 3 1 1 2 3 3 4 3 3 5 3 3 4 6 6 5 4 3 4 3 4 4 4 3 5 6 7 7 7 7 7 8 9 9 9 8 9 9 9 9 8 8 7 7 7
4 6 3 2 4 2 1 3 2 3 4 4 4 4 5 8 7 7 5 4 3 3 3 3 3 3 3 3 4 6 7 7 7 6 8 7 5 5 6 8 10 10 10 10 9 8 8 7 7
5 4 1 2 3 4 3 3 3 4 4 4 6 6 8 8 7 6 5 3 2 2 1 2 2 3 3 3 4 3 4 4 4 4 5 4 4 4 6 9 11 11 11 10 10 10 9 7 4
4 4 1 1 3 5 4 3 3 5 3 3 8 9 8 7 6 6 4 3 3 2 2 2 2 2 3 2 3 2 2 3 3 4 4 3 3 3 4 3 5 6 8 6 7 6 4 4 3
4 2 2 2 3 4 4 4 4 3 1 3 8 10 8 7 6 5 5 3 2 2 2 2 2 3 3 3 2 2 2 2 2 3 4 3 3 3 3 3 3 3 3 4 4 3 4 4 4
4 2 4 5 6 5 7 6 4 3 4 7 8 8 7 6 4 3 3 3 3 3 2 2 3 3 2 2 2 2 2 2 2 3 3 3 3 3 3 3 3 4 3 3 4 4 4 4 4
3 5 5 6 6 4 7 4 4 3 5 8 7 6 5 5 4 3 3 3 3 3 3 3 3 3 3 3 2 2 2 2 3 3 3 3 3 2 3 3 3 3 3 3 3 4 3 3 3
5 7 6 5 3 2 6 6 3 1 6 7 5 4 3 3 4 4 4 3 4 4 3 4 4 3 4 3 3 3 2 3 3 3 3 4 3 3 3 3 3 3 3 3 3 4 3 4 4
5 5 3 3 2 2 5 3 1 2 7 6 4 4 3 2 3 3 3 3 4 4 4 3 4 5 4 3 3 3 3 3 3 3 3 4 4 3 3 3 3 3 3 3 3 3 3 4 4
4 3 2 2 2 2 4 3 1 2 5 5 4 3 3 2 2 2 3 4 4 5 5 4 4 5 4 4 4 3 3 3 3 3 3 3 4 4 3 3 2 3 3 3 3 3 3 3 3
3 3 2 1 0 3 3 2 2 3 5 5 4 3 2 3 3 3 3 4 4 4 5 5 4 5 5 4 3 3 4 3 3 3 3 3 3 4 3 3 3 3 3 4 3 3 3 3 2
5 4 2 1 1 3 3 2 3 3 4 4 4 4 4 4 2 2 3 4 4 4 5 4 5 4 4 2 2 2 2 2 2 3 3 4 3 4 3 3 3 3 3 3 3 2 4 4 3
4 4 2 1 1 3 2 1 2 4 5 6 7 7 6 4 3 3 4 4 4 4 4 4 4 4 3 2 2 2 2 1 1 2 3 4 4 3 3 4 3 3 3 4 4 3 2 3 4
2 3 3 3 2 3 3 1 2 3 3 4 5 6 6 7 7 6 5 5 4 4 5 5 4 4 4 4 3 3 3 3 3 3 3 4 4 4 4 3 3 3 3 3 3 3 3 2 3
1 1 4 4 4 0 1 2 5 4 4 6 7 7 7 7 7 6 6 6 6 5 4 4 4 4 4 4 4 4 3 2 1 1 1 3 4 4 4 3 4 4 3 3 3 3 2 2 2
3 3 4 3 3 2 1 1 7 2 5 8 9 9 8 8 8 8 7 7 5 5 5 4 4 4 4 4 4 4 3 2 1 1 3 3 4 4 4 4 4 4 3 3 4 4 4 2 2
5 6 6 5 4 1 3 3 6 5 9 8 9 10 9 8 8 7 6 5 4 4 4 5 5 4 3 4 4 5 5 3 3 2 2 2 2 3 4 4 4 4 3 3 3 3 4 3 3
5 6 3 3 2 4 2 3 9 7 7 9 10 11 10 9 9 8 8 7 6 6 6 5 5 4 3 4 4 4 4 4 3 2 1 1 1 2 3 3 3 3 3 3 3 4 4 3 3
3 6 6 4 4 4 1 5 8 5 4 6 7 8 9 9 9 9 9 9 8 8 7 6 6 5 4 4 3 3 4 3 2 2 2 2 1 0 1 2 3 3 3 4 4 4 3 3 4
5 3 4 5 1 1 4 6 7 2 1 3 6 8 10 10 10 10 9 8 8 8 8 8 7 5 5 4 4 3 3 3 3 2 2 1 1 1 1 2 3 3 3 4 4 4 3 3 4
4 7 5 4 3 2 4 4 4 4 3 4 7 9 9 9 9 9 8 8 8 7 6 6 6 6 5 4 4 3 3 3 3 3 2 2 1 2 2 3 3 3 3 4 4 3 3 4 3
4 3 4 3 3 3 2 6 6 6 6 7 8 9 10 11 11 10 8 7 7 6 6 6 6 5 5 5 4 4 3 3 3 3 2 2 2 2 2 2 3 3 3 3 3 3 3 4 4
5 6 7 4 3 3 3 8 5 4 5 6 7 7 8 10 9 9 8 7 7 7 7 7 6 6 5 5 5 5 4 4 3 3 2 2 2 2 2 2 3 3 2 2 3 3 3 3 3
Wind_Direction
11 61 76 59 56 55 57 2 18 61 62 50 57 73 83 70 86 121 162 104 107 99 90 105 105 101 100 99 98 96 93 92 91 88 85 83 81 78 76 75 73 68 64 60 57 55 53 51 48
57 80 57 59 77 73 26 359 69 88 128 121 58 58 69 65 64 99 111 117 111 104 91 105 106 101 100 99 98 96 95 92 90 88 85 80 78 75 72 69 67 63 60 57 54 51 48 46 45
61 56 74 66 81 124 130 83 104 89 92 76 68 52 62 66 77 112 140 123 104 94 87 108 106 102 100 98 97 95 92 90 89 87 83 77 74 70 67 66 63 59 57 55 51 48 44 42 43
73 45 53 66 73 57 133 131 128 108 64 52 86 67 53 32 77 118 121 117 107 94 89 110 108 103 99 97 95 92 90 87 85 83 77 74 70 66 62 60 58 55 54 51 48 46 42 39 42
61 71 63 59 49 17 31 69 94 95 76 62 80 82 45 14 77 101 111 114 113 100 89 105 107 106 103 99 96 93 89 85 80 75 71 65 61 59 55 51 50 47 48 48 44 45 42 42 44
56 64 78 79 47 22 12 29 84 83 84 75 75 81 49 47 90 110 115 111 111 105 87 89 101 103 99 96 94 92 85 79 75 69 65 58 53 49 44 41 41 40 40 40 40 43 43 43 44
93 84 96 108 90 53 64 50 77 95 86 72 87 85 68 64 91 114 110 103 91 82 78 65 60 75 84 87 85 79 72 69 67 62 56 48 44 40 36 32 31 32 34 35 38 41 44 46 48
109 94 83 91 113 104 68 70 66 85 97 98 91 115 145 160 113 97 91 84 81 76 75 70 57 52 48 46 69 70 67 61 55 49 44 39 33 27 26 23 23 28 33 36 40 43 45 49 51
80 75 96 153 148 142 104 91 57 57 86 65 66 100 129 126 112 100 86 70 70 74 63 65 59 48 41 33 52 57 55 49 44 35 37 35 26 18 15 18 26 30 32 35 40 46 49 52 49
71 95 147 187 162 137 110 99 112 81 68 73 78 82 107 115 117 115 118 121 123 116 81 63 56 45 41 44 48 38 41 37 37 34 33 30 26 22 28 22 29 30 31 34 41 46 47 50 40
80 118 132 72 121 120 111 88 75 102 90 144 139 135 130 124 128 132 139 144 156 152 132 97 98 68 57 51 50 38 36 35 33 35 36 38 35 28 29 24 19 20 26 27 31 37 33 39 45
84 66 100 89 95 101 106 99 79 75 144 138 141 141 137 136 144 153 154 151 139 132 138 117 103 88 69 62 54 48 46 41 34 29 36 47 43 35 28 30 18 22 17 24 29 35 35 39 42
72 73 68 73 77 89 86 77 93 61 80 104 115 124 137 142 143 143 143 147 143 138 136 121 113 103 88 71 57 60 50 45 39 35 36 56 60 48 39 33 26 23 22 27 28 34 39 37 34
95 85 68 59 68 67 92 71 73 70 108 109 117 130 146 152 149 134 139 149 145 139 135 120 108 109 101 86 75 63 57 51 47 41 40 54 64 60 52 41 31 22 20 27 35 39 43 38 37
88 79 52 38 59 89 90 56 48 109 121 117 127 131 133 148 146 152 162 158 145 139 127 123 122 107 98 91 81 70 61 60 52 43 44 54 61 63 61 52 36 15 15 32 40 38 40 41 41
64 61 52 357 46 65 98 105 77 134 131 135 142 134 131 149 160 165 162 148 140 132 125 127 124 110 100 92 77 68 60 59 50 44 45 51 56 61 61 54 34 13 26 34 44 39 42 37 38
50 90 92 350 25 65 108 151 176 161 143 146 151 147 142 150 167 178 162 149 142 137 133 121 114 112 105 92 75 64 58 52 44 43 44 45 50 54 63 55 30 23 40 34 37 42 48 42 33
147 131 133 193 282 100 108 147 159 166 156 157 162 165 160 179 202 182 154 139 130 125 124 119 109 107 103 89 75 57 49 39 37 38 39 45 47 50 59 55 35 32 45 35 36 47 43 44 27
130 122 127 209 177 114 130 165 202 172 164 172 180 180 190 206 206 158 142 132 124 122 123 124 120 121 115 99 92 79 56 27 27 28 34 39 43 45 55 52 39 36 48 40 38 49 47 31 11
118 118 117 51 82 113 132 213 226 191 196 194 192 194 195 190 172 164 149 149 147 147 141 135 134 138 133 120 119 117 110 70 40 17 29 29 34 34 53 56 49 40 46 39 34 43 54 31 24
114 155 166 149 71 63 99 330 247 226 201 202 201 196 195 190 185 179 169 170 159 159 162 156 149 140 129 120 103 80 59 42 30 19 15 9 24 35 46 51 54 45 50 44 34 41 66 59 28
183 191 143 129 108 23 112 258 268 224 213 211 210 203 203 197 183 181 177 174 175 174 160 147 144 135 133 131 123 119 113 101 42 2 9 13 27 33 38 46 53 50 46 43 32 46 53 79 52
162 95 97 104 110 58 35 179 281 211 223 226 215 208 205 197 185 185 185 180 174 163 156 147 138 131 138 141 136 123 111 109 80 52 48 32 23 27 34 41 49 49 44 43 43 44 48 57 73
114 77 62 53 66 332 230 181 274 224 215 216 209 205 201 192 187 185 179 164 161 155 150 145 145 145 146 144 138 133 131 127 111 81 61 32 18 17 27 41 45 48 45 42 45 51 53 54 64
89 91 51 12 7 259 235 203 252 244 221 206 199 198 195 185 180 179 174 173 171 167 165 156 156 159 157 145 143 144 144 146 148 148 127 93 29 12 7 30 40 44 44 46 52 57 49 46 57
154 135 152 186 219 275 258 238 257 264 244 210 193 182 179 181 182 184 183 180 177 175 172 166 169 170 164 156 154 151 153 153 156 156 148 147 147 354 13 40 50 50 50 54 54 55 46 48 49
133 154 156 130 158 284 278 282 300 305 329 178 172 168 181 186 187 188 183 180 178 178 178 175 173 171 169 166 153 154 159 154 153 145 129 129 128 103 68 66 64 56 57 59 62 57 42 46 44
137 141 109 121 145 269 296 282 263 269 238 186 180 185 190 186 187 187 184 183 181 180 175 172 171 171 167 164 163 156 156 149 140 130 131 130 109 90 88 77 74 65 58 58 65 57 43 54 39
122 116 113 117 152 159 275 279 237 231 217 198 200 194 189 188 188 187 185 180 174 166 165 166 165 160 159 160 153 141 142 136 130 131 139 141 120 111 105 100 91 78 63 58 65 56 51 55 39
163 164 149 154 199 180 187 269 271 241 222 199 202 197 190 190 187 182 176 166 166 168 168 167 166 165 165 156 147 145 139 133 133 137 141 138 131 121 116 109 100 90 76 67 71 64 55 58 48